Regional Weather Roundup
Issued by NWS

Home | Current Version | Previous Version | Text Only | Print | Product List | Glossary On
Versions: 1 2 3 4 5 6 7 8 9 10 11 12 13 14 15 16 17 18 19 20 21 22 23 24 25 26 27 28 29 30 31 32 33 34 35 36 37 38 39 40 41 42 43 44 45 46 47 48 49 50
000
ASUS43 KMPX 031801
RWRMN
WEATHER ROUNDUP FOR MINNESOTA
NATIONAL WEATHER SERVICE TWIN CITIES/CHANHASSEN MN
1200 PM CST TUE MAR 03 2015


NOTE: "FAIR" INDICATES FEW OR NO CLOUDS BELOW 12,000 FEET WITH NO
SIGNIFICANT WEATHER AND/OR OBSTRUCTIONS TO VISIBILITY. N/A MEANS
CURRENT SKY AND/OR WEATHER CONDITIONS ARE NOT AVAILABLE.

MNZ060>063-068>070-031900-
   Twin Cities Metro

CITY           SKY/WX    TMP DP  RH WIND       PRES   REMARKS
TWIN CITIES    LGT SNOW  28  22  78 W10       29.67S WCI  19
6HR MIN TEMP:  21; 6HR MAX TEMP:  28; 6HR PCP:  0.12;

ST PAUL        LGT SNOW  29  25  85 W9        29.68S FOG     WCI  20
CRYSTAL        CLOUDY    28  21  75 W15       29.67R HAZE    WCI  16
BLAINE         LGT SNOW  28  25  86 W14       29.66S WCI  17
LAKEVILLE      MOSUNNY   28  23  80 W15       29.66F WCI  17
EDEN PRAIRIE   CLOUDY    29  22  75 W13       29.67R HAZE    WCI  19
6HR MIN TEMP:  22; 6HR MAX TEMP:  29; 6HR PCP:  0.09;

SOUTH ST PAUL  LGT SNOW  29  23  78 W12       29.67S WCI  20
LAKE ELMO      LGT SNOW  30  25  80 W12       29.67S WCI  21
$$
MNZ001>005-007-008-013>017-022>024-027-028-031900-
   Northwest Minnesota

CITY           SKY/WX    TMP DP  RH WIND       PRES   REMARKS
BEMIDJI        CLOUDY    14   5  68 NW26G36   29.73R HAZE    WCI  -6
HALLOCK        CLOUDY     9   3  78 N22       29.86R VSB 3/4 WCI -11
ROSEAU         PTSUNNY   12   1  62 NW23      29.76R WCI  -7
WARROAD        PTSUNNY   10   0  61 W18       29.75R WCI  -8
THIEF RVR FALL CLOUDY    10   5  79 NW23      29.82R WCI -10
CROOKSTON      MOSUNNY   10   3  72 NW22G31   29.88R WCI  -9
FOSSTON        CLOUDY    10   1  67 NW20G30   29.81R HAZE    WCI  -8
DETROIT LAKES  CLOUDY    14   9  79 NW23G30   29.81R HAZE    WCI  -5
MOORHEAD       CLOUDY    16   9  73 NW22G32   29.90R WCI  -2
PARK RAPIDS    LGT SNOW  16   6  65 NW20      29.72R WCI  -1
MAHNOMEN       CLOUDY    13   7  78 NW22      29.81R HAZE    WCI  -6
$$
MNZ006-009>011-018-025>026-031900-
   North Central Minnesota

CITY           SKY/WX    TMP DP  RH WIND       PRES   REMARKS
BAUDETTE       PTSUNNY   11   1  64 NW20      29.69R WCI  -7
FLAG ISLAND    SUNNY      7  -2  66 NW26G32   29.71R HAZE    WCI -16
INTL FALLS     PTSUNNY   16   4  59 W23G30    29.63R WCI  -2
6HR MIN TEMP:  16; 6HR MAX TEMP:  24; 6HR PCP:  0.03;

WASKISH        CLOUDY    19   7  58 W18       29.70R WCI   4
BIG FORK       LGT SNOW  19  10  68 NW12G23   29.64R WCI   7
LONGVILLE      MOSUNNY   18   7  62 NW17G25   29.69R WCI   2
GRAND RAPIDS   CLOUDY    19  10  68 NW20G30   29.62R WCI   4
CRANE LAKE     LGT SNOW  21  18  86 W9        29.58R WCI  11
ORR            LGT SNOW  19  10  68 NW16G24   29.56R WCI   5
COOK           LGT SNOW  21  14  73 NW18G29   29.57R WCI   6
WALKER         MOCLDY    15   4  60 NW15G25   29.70R HAZE    WCI   0
$$
MNZ012-019>021-037-031900-
   Northeast Minnesota

CITY           SKY/WX    TMP DP  RH WIND       PRES   REMARKS
DULUTH         LGT SNOW  22  17  81 W18       29.55F VSB 3/4 WCI   7
6HR MIN TEMP:  19; 6HR MAX TEMP:  22; 6HR PCP:  0.15;

ELY            LGT SNOW  23  19  86 W9G16     29.51F WCI  13
HIBBING        LGT SNOW  23  16  74 NW17      29.57R WCI   9
EVELETH        LGT SNOW  23  19  86 W9        29.56S WCI  13
DULUTH HARBOR  MIX PCPN  25  19  80 SW14      29.61S WCI  13
TWO HARBORS    LGT SNOW  27  19  74 W10       29.54F WCI  17
SILVER BAY     MIX PCPN  25  19  80 SW5       29.52F WCI  19
GRAND MARAIS     N/A     27  24  89 SW25G35   29.53F WCI  12
G MARAIS ARPRT LGT SNOW  19  16  86 SW10      29.46F VSB 3/4 WCI   8
$$
MNZ029>031-032-039>041-046>048-054>057-064-031900-
   West Central Minnesota

CITY           SKY/WX    TMP DP  RH WIND       PRES   REMARKS
FERGUS FALLS   CLOUDY    12   5  73 NW28G33   29.89R HAZE    WCI  -9
WHEATON        CLOUDY    12   7  79 NW26G32   29.91R HAZE    WCI  -8
MORRIS         PTSUNNY   16   9  73 NW30G37   29.84R HAZE    WCI  -4
ALEXANDRIA     FLURRIES  17   9  70 NW24      29.77R WCI  -1
ELBOW LAKE     LGT SNOW  13   8  81 NW29G36   29.84R VSB 1   WCI  -8
WADENA         PTSUNNY   16   7  67 NW25G33   29.75R HAZE    WCI  -3
GLENWOOD       LGT SNOW  18  12  79 NW25G32   29.78R WCI  -1
APPLETON       CLOUDY    19  12  73 NW29G36   29.87R HAZE    WCI   1
BENSON         LGT SNOW  18  10  73 N31G37    29.83R WCI  -2
ORTONVILLE     LGT SNOW  16   7  67 NW24G35   29.88R WCI  -3
MADISON        LGT SNOW  18  12  79 NW30G37   29.89R VSB 1   WCI  -2
WILLMAR        LGT SNOW  21  16  79 NW30G38   29.79R VSB 3/4 WCI   3
$$
MNZ033>034-036-042>043-049>051-058-059-031900-
   Central Minnesota

CITY           SKY/WX    TMP DP  RH WIND       PRES   REMARKS
ST CLOUD       LGT SNOW  25  19  78 NW24G30   29.68R WCI   9
6HR MIN TEMP:  20; 6HR MAX TEMP:  25; 6HR PCP:  0.14;

SAUK CENTRE    SNOW      19  11  70 NW26G36   29.75R VSB 1/4 WCI   1
PAYNESVILLE    CLOUDY    20  15  79 W23G29    29.74R HAZE    WCI   3
AITKIN         CLOUDY    27  16  63 NW13G23   29.64R HAZE    WCI  16
PINE RIVER     MOSUNNY   19   9  63 NW16G22   29.73R WCI   5
BRAINERD       PTSUNNY   22  12  65 NW22      29.68R HAZE    WCI   6
STAPLES        CLOUDY    18   9  68 NW20      29.73R HAZE    WCI   1
LITTLE FALLS   LGT SNOW  23  12  63 NW14G25   29.71R WCI  11
LITCHFIELD     SUNNY     25  19  80 NW23G30   29.72R HAZE    WCI  10
BUFFALO        LGT SNOW  28  22  78 W16G23    29.69R WCI  16
MAPLE LAKE     LGT SNOW  29  24  82 NW13G20   29.69R WCI  19
$$
MNZ037-044-045-052-053-031900-
   East Central Minnesota

CITY           SKY/WX    TMP DP  RH WIND       PRES   REMARKS
PRINCETON      LGT SNOW  28  21  74 W13       29.66R WCI  18
MORA           LGT SNOW  27  21  80 W10       29.65F WCI  17
CAMBRIDGE      CLOUDY    27  18  69 W7        29.64S WCI  19
RUSH CITY      MIX PCPN  27  21  78 W10       29.66R WCI  17
MOOSE LAKE     LGT SNOW  27  19  74 W8        29.60S WCI  18
HINCKLEY       LGT SNOW  27  21  80 W12       29.64R WCI  16
CLOQUET        LGT SNOW  23  18  80 W14       29.58S WCI  11
MCGREGOR       CLOUDY    27  21  80 W16G23    29.62S VSB 1   WCI  14
$$
MNZ071>073-080-081-089-090-097-098-031900-
   Southwest Minnesota

CITY           SKY/WX    TMP DP  RH WIND       PRES   REMARKS
MONTEVIDEO     LGT SNOW  19  19 100 N30G38    29.85R VSB 1   WCI   0
GRANITE FALLS  LGT SNOW  20  15  81 NW29G39   29.85R VSB 3/4 WCI   2
CANBY          LGT SNOW  19  12  76 NW22G31   29.88R WCI   2
MARSHALL       CLOUDY    19  10  68 NW36G44   29.85R VSB 1   WCI  -1
REDWOOD FALLS  LGT SNOW  22  16  78 NW23G38   29.78R WCI   6
OLIVIA         FOG       19  18  93 NW32G41   29.77R VSB 3/4 WCI   0
PIPESTONE      LGT SNOW  19  14  79 N30G38    29.82R WCI   0
WINDOM         CLOUDY    21  18  86 NW26G37   29.77R FOG     WCI   4
WORTHINGTON    CLOUDY   N/A N/A N/A N29       29.81R
JACKSON        CLOUDY    25  19  80 NW29G36   29.76R HAZE    WCI   8
TRACY          LGT SNOW  22  17  81 NW25G37   29.82R VSB 1   WCI   5
SLAYTON        HAZE      20  15  81 NW29G36   29.80R VSB 1   WCI   2
$$
MNZ065>067-074>077-082>085-091>093-031900-
   South Central Minnesota

CITY           SKY/WX    TMP DP  RH WIND       PRES   REMARKS
MANKATO        CLOUDY    28  21  74 NW21G29   29.71R WCI  15
NEW ULM        PTSUNNY   23  18  80 NW29G35   29.74R HAZE    WCI   6
ST JAMES       CLOUDY    25  21  86 W28G33    29.76R FOG     WCI   8
FAIRMONT       CLOUDY    27  18  69 NW25G31   29.73R WCI  11
GLENCOE        CLOUDY    28  24  84 NW16      29.70R FOG     WCI  17
FARIBAULT      PTSUNNY   30  23  74 W14G22    29.68S WCI  20
OWATONNA       PTSUNNY   28  25  86 W15       29.68R WCI  17
ALBERT LEA     PTSUNNY   28  27  93 W13G22    29.67S WCI  18
$$
MNZ078>079-086>088-094>096-031900-
   Southeast Minnesota

CITY           SKY/WX    TMP DP  RH WIND       PRES   REMARKS
ROCHESTER      CLOUDY    27  23  85 W18G26    29.64F FOG     WCI  14
6HR MIN TEMP:  22; 6HR MAX TEMP:  27; 6HR PCP:  0.04;

RED WING       LGT SNOW  30  21  69 W13       29.66F WCI  20
STANTON        PTSUNNY   31  24  75 W13       29.66S HAZE    WCI  21
DODGE CENTER   CLOUDY    28  25  86 W15G21    29.64F WCI  17
WINONA         CLOUDY    30  27  86 W8        29.67F WCI  23
AUSTIN         CLOUDY    28  25  86 NW16G23   29.66F WCI  17
PRESTON        MIX PCPN  26  24  90 W13       29.65S WCI  15
$$
ABBREVIATIONS USED IN REMARKS
   TC - TEMPERATURES IN CELSIUS
  WCI - WIND CHILL INDEX
   HX - HEAT INDEX
  VSB - VISIBILITY
$$



USA.gov is the U.S. government's official web portal to all federal, state and local government web resources and services.